Content
SEND FEEDBACK

Daily
Averages
Monthly
Summary
United States of America

ANDERSON, TEXAS


Home > North America > United States > Texas
Elevation: 370 feet     Latitude: 30 28N     Longitude: 095 59W

WEATHER
 
SELECT A DAY
Number of Records: 207,242;   Date Range: 1/1/95 - 8/30/14
 
SHARE

PRINT THIS DATA

[ ← Previous Day ]
WEATHER ALMANAC - JANUARY 31, 2013
[ Next Day → ]
[ °C ]   °F
Weather ElementAverageHighLow
Temperature51.1 °F66 °F (2:53 pm)34 °F (5:53 am)
Dewpoint26.4 °F34 °F (11:53 pm)19.9 °F (3:53 pm)
Humidity44.2 %79 % (5:53 am)17 % (3:53 pm)
Barometer30.24 in30.30 in (9:53 am)30.19 in (4:53 pm)
Wind Speed6.3 mph15 mph (11:53 am)
Wind Gust23 mph (12:53 pm)
Weather ElementAverage
Visibility10 mi
Wind DirectionSSE (140.9 °)

Weather ElementTotal
Precipitation---
Heating Degree Days15 (Base 65)
Averaged from 23 records on January 31, 2013
WEATHER CONDITIONS BREAKOUT
WIND DIRECTION BREAKOUT
WEATHER BY HOUR - JANUARY 31, 2013
[ °C ]   °F
Local TimeTemperatureDewpointHumidityBarometerVisibilityWind DirectionWind SpeedGust SpeedPrecipitationEventsConditions
1:53 AM39.0 °F28.9 °F67 %30.22 in10.0 miCalmClear
2:53 AM37.0 °F28.9 °F73 %30.21 in10.0 miCalmClear
3:53 AM37.0 °F28.0 °F70 %30.20 in10.0 miCalmClear
4:53 AM37.0 °F27.0 °F67 %30.20 in10.0 miCalmClear
5:53 AM34.0 °F28.0 °F79 %30.22 in10.0 miCalmClear
6:53 AM36.0 °F28.0 °F73 %30.24 in10.0 miCalmClear
7:53 AM36.0 °F28.0 °F73 %30.27 in10.0 miCalmClear
8:53 AM43.0 °F28.9 °F58 %30.29 in10.0 miSSW (210°)8.1 mphClear
9:53 AM50.0 °F28.0 °F43 %30.30 in10.0 miSW (220°)12.7 mphClear
10:53 AM57.0 °F26.1 °F30 %30.30 in10.0 miSSW (210°)10.4 mphClear
11:53 AM60.1 °F24.1 °F25 %30.28 in10.0 miSW (220°)15.0 mph20.7 mphClear
12:53 PM63.0 °F21.0 °F20 %30.25 in10.0 miWSW (240°)12.7 mph23.0 mphClear
1:53 PM64.9 °F21.9 °F19 %30.22 in10.0 miSW (230°)11.5 mphClear
2:53 PM66.0 °F21.0 °F18 %30.21 in10.0 miSSW (210°)8.1 mphClear
3:53 PM66.0 °F19.9 °F17 %30.20 in10.0 miSouth (190°)10.4 mphClear
4:53 PM66.0 °F19.9 °F17 %30.19 in10.0 miSouth (180°)9.2 mphClear
5:53 PM62.1 °F21.0 °F21 %30.19 in10.0 miSSW (200°)4.6 mphClear
6:53 PM57.9 °F24.1 °F27 %30.22 in10.0 miSouth (190°)3.5 mphClear
7:53 PM51.1 °F30.0 °F44 %30.25 in10.0 miSouth (190°)5.8 mphClear
8:53 PM55.0 °F27.0 °F34 %30.27 in10.0 miSouth (180°)10.4 mphClear
9:53 PM53.1 °F30.0 °F41 %30.27 in10.0 miSouth (190°)9.2 mphClear
10:53 PM52.0 °F33.1 °F49 %30.28 in10.0 miSouth (190°)8.1 mphClear
11:53 PM51.1 °F34.0 °F52 %30.28 in10.0 miSouth (190°)5.8 mphClear
Hourly data recorded from KCLL, located miles away from Anderson, Texas







STORIES FROM OUR PARTNERS